DLH2EM EDDW-EDDF

Flight info

Callsign DLH2EM
Flight time 0h 39m
Altitude 19000
Route WIMCI1L WIMCI Y804 PIROT T152 KERAX KERAX5A
Aircraft A319/M-SDE2E3FGIJ1LORWXYZ/HB1

Departure

Time 2026-04-16 14:09
Airport Bremen Airport (EDDW)

Arrival

Time 2026-04-16 14:48
Airport Frankfurt Main Airport (EDDF)
Time Latitude Longitude Altitude Speed Heading
2026-04-16 13:18 53.05212 8.78481 21 ft 0 kts 37°
2026-04-16 14:01 53.05211 8.78480 19 ft 1 kts 37°
2026-04-16 14:01 53.05192 8.78455 19 ft 4 kts 40°
2026-04-16 14:02 53.05172 8.78425 21 ft 4 kts 47°
2026-04-16 14:02 53.05157 8.78390 19 ft 4 kts 74°
2026-04-16 14:02 53.05156 8.78361 23 ft 1 kts 121°
2026-04-16 14:05 53.05148 8.78384 20 ft 9 kts 121°
2026-04-16 14:05 53.05077 8.78515 18 ft 17 kts 139°
2026-04-16 14:05 53.04980 8.78643 18 ft 18 kts 155°
2026-04-16 14:05 53.04866 8.78693 18 ft 18 kts 123°
2026-04-16 14:06 53.04855 8.78903 16 ft 19 kts 89°
2026-04-16 14:06 53.04860 8.79121 21 ft 18 kts 87°
2026-04-16 14:06 53.04866 8.79318 22 ft 17 kts 87°
2026-04-16 14:06 53.04872 8.79522 22 ft 19 kts 88°
2026-04-16 14:07 53.04876 8.79729 25 ft 18 kts 88°
2026-04-16 14:07 53.04879 8.79947 21 ft 20 kts 89°
2026-04-16 14:07 53.04885 8.80188 20 ft 21 kts 86°
2026-04-16 14:07 53.04866 8.80430 17 ft 22 kts 131°
2026-04-16 14:08 53.04738 8.80415 21 ft 18 kts 234°
2026-04-16 14:08 53.04722 8.80292 19 ft 0 kts 267°
2026-04-16 14:08 53.04722 8.80291 19 ft 1 kts 267°
2026-04-16 14:09 53.04719 8.80134 19 ft 46 kts 268°
2026-04-16 14:09 53.04697 8.79148 20 ft 121 kts 268°
2026-04-16 14:09 53.04663 8.77559 409 ft 143 kts 268°
2026-04-16 14:09 53.04350 8.75993 1231 ft 146 kts 240°
2026-04-16 14:10 53.03564 8.74772 1796 ft 170 kts 211°
2026-04-16 14:10 53.02367 8.74023 2244 ft 196 kts 204°
2026-04-16 14:10 53.00991 8.73205 2789 ft 223 kts 203°
2026-04-16 14:10 52.99398 8.72571 3406 ft 253 kts 182°
2026-04-16 14:11 52.97693 8.73562 4302 ft 271 kts 147°
2026-04-16 14:11 52.96266 8.75643 5404 ft 276 kts 136°
2026-04-16 14:11 52.94983 8.78054 6487 ft 281 kts 132°
2026-04-16 14:11 52.93672 8.80470 7469 ft 284 kts 140°
2026-04-16 14:12 52.92076 8.82329 8432 ft 284 kts 157°
2026-04-16 14:12 52.90201 8.83490 9465 ft 286 kts 165°
2026-04-16 14:12 52.88284 8.84491 10415 ft 292 kts 166°
2026-04-16 14:12 52.86259 8.85501 10851 ft 316 kts 166°
2026-04-16 14:13 52.84105 8.86561 11141 ft 327 kts 166°
2026-04-16 14:13 52.81917 8.87647 11191 ft 329 kts 166°
2026-04-16 14:13 52.79756 8.88731 11192 ft 328 kts 166°
2026-04-16 14:13 52.77568 8.89837 11316 ft 333 kts 166°
2026-04-16 14:14 52.75309 8.90983 12251 ft 335 kts 166°
2026-04-16 14:14 52.73099 8.92107 13199 ft 339 kts 166°
2026-04-16 14:14 52.70827 8.93260 14064 ft 343 kts 166°
2026-04-16 14:14 52.68532 8.94423 14821 ft 348 kts 166°
2026-04-16 14:15 52.66199 8.95595 15567 ft 353 kts 166°
2026-04-16 14:15 52.63835 8.96774 16317 ft 357 kts 167°
2026-04-16 14:15 52.61439 8.97964 17054 ft 362 kts 167°
2026-04-16 14:15 52.59012 8.99170 17815 ft 367 kts 167°
2026-04-16 14:16 52.56553 9.00392 18587 ft 372 kts 167°
2026-04-16 14:16 52.54060 9.01631 19036 ft 376 kts 167°
2026-04-16 14:16 52.51549 9.02878 19181 ft 378 kts 167°
2026-04-16 14:16 52.49089 9.04105 19210 ft 361 kts 167°
2026-04-16 14:17 52.46721 9.05287 19217 ft 358 kts 168°
2026-04-16 14:17 52.44248 9.06496 19221 ft 384 kts 168°
2026-04-16 14:17 52.41613 9.07774 19202 ft 401 kts 167°
2026-04-16 14:17 52.38919 9.09086 19215 ft 406 kts 167°
2026-04-16 14:18 52.36199 9.10351 19222 ft 407 kts 168°
2026-04-16 14:18 52.33466 9.11562 19220 ft 407 kts 169°
2026-04-16 14:18 52.30729 9.12738 19217 ft 407 kts 169°
2026-04-16 14:18 52.27991 9.13903 19221 ft 407 kts 169°
2026-04-16 14:19 52.25253 9.15069 19220 ft 407 kts 169°
2026-04-16 14:19 52.22521 9.16240 19221 ft 407 kts 169°
2026-04-16 14:19 52.19784 9.17425 19221 ft 407 kts 169°
2026-04-16 14:19 52.17048 9.18614 19221 ft 407 kts 169°
2026-04-16 14:20 52.14312 9.19802 19204 ft 407 kts 169°
2026-04-16 14:20 52.11576 9.20984 19203 ft 407 kts 169°
2026-04-16 14:20 52.08837 9.22161 19208 ft 407 kts 169°
2026-04-16 14:20 52.06096 9.23309 19207 ft 406 kts 172°
2026-04-16 14:21 52.03325 9.23788 19211 ft 400 kts 182°
2026-04-16 14:21 52.00537 9.23937 19216 ft 401 kts 182°
2026-04-16 14:21 51.97750 9.24077 19215 ft 401 kts 182°
2026-04-16 14:21 51.94964 9.24206 19217 ft 401 kts 182°
2026-04-16 14:22 51.92176 9.24337 19223 ft 401 kts 182°
2026-04-16 14:22 51.89387 9.24471 19214 ft 401 kts 182°
2026-04-16 14:22 51.86597 9.24603 19219 ft 401 kts 182°
2026-04-16 14:22 51.83805 9.24732 19219 ft 401 kts 182°
2026-04-16 14:23 51.81051 9.24863 19224 ft 401 kts 182°
2026-04-16 14:23 51.78261 9.24994 19225 ft 401 kts 182°
2026-04-16 14:23 51.75471 9.25125 19225 ft 401 kts 182°
2026-04-16 14:23 51.72687 9.25259 19226 ft 401 kts 182°
2026-04-16 14:24 51.69897 9.25394 19227 ft 401 kts 182°
2026-04-16 14:24 51.67108 9.25528 19209 ft 401 kts 182°
2026-04-16 14:24 51.64319 9.25665 19210 ft 401 kts 182°
2026-04-16 14:24 51.61530 9.25800 19213 ft 401 kts 182°
2026-04-16 14:25 51.58737 9.25933 19216 ft 401 kts 182°
2026-04-16 14:25 51.55946 9.26063 19217 ft 401 kts 182°
2026-04-16 14:25 51.53152 9.26194 19220 ft 402 kts 182°
2026-04-16 14:25 51.50356 9.26326 19222 ft 402 kts 182°
2026-04-16 14:26 51.47563 9.26458 19225 ft 402 kts 182°
2026-04-16 14:26 51.44769 9.26590 19225 ft 402 kts 182°
2026-04-16 14:26 51.41974 9.26720 19211 ft 402 kts 182°
2026-04-16 14:26 51.39177 9.26851 19215 ft 402 kts 182°
2026-04-16 14:27 51.36380 9.26982 19220 ft 402 kts 182°
2026-04-16 14:27 51.33588 9.27112 19222 ft 402 kts 182°
2026-04-16 14:27 51.30788 9.27240 19232 ft 403 kts 182°
2026-04-16 14:27 51.27987 9.27373 19234 ft 403 kts 182°
2026-04-16 14:28 51.25188 9.27504 19238 ft 402 kts 182°
2026-04-16 14:28 51.22389 9.27632 19242 ft 402 kts 182°
2026-04-16 14:28 51.19588 9.27764 19225 ft 403 kts 182°
2026-04-16 14:28 51.16787 9.27899 19230 ft 403 kts 182°
2026-04-16 14:29 51.13986 9.28030 19234 ft 403 kts 182°
2026-04-16 14:29 51.11182 9.28158 19237 ft 403 kts 182°
2026-04-16 14:29 51.08380 9.28214 19241 ft 403 kts 184°
2026-04-16 14:29 51.05580 9.28172 19247 ft 402 kts 185°
2026-04-16 14:30 51.02781 9.28071 19251 ft 402 kts 185°
2026-04-16 14:30 50.99983 9.27952 19252 ft 402 kts 186°
2026-04-16 14:30 50.97190 9.27841 19252 ft 402 kts 185°
2026-04-16 14:30 50.94387 9.27977 19232 ft 407 kts 175°
2026-04-16 14:31 50.91645 9.29180 19232 ft 413 kts 160°
2026-04-16 14:31 50.89087 9.31303 19221 ft 416 kts 154°
2026-04-16 14:31 50.86559 9.33528 19222 ft 416 kts 154°
2026-04-16 14:31 50.84031 9.35754 19223 ft 416 kts 154°
2026-04-16 14:32 50.81533 9.37944 19224 ft 416 kts 154°
2026-04-16 14:32 50.78998 9.40153 19229 ft 416 kts 154°
2026-04-16 14:32 50.76458 9.42353 19231 ft 416 kts 154°
2026-04-16 14:32 50.73916 9.44547 19232 ft 416 kts 154°
2026-04-16 14:33 50.71376 9.46737 19109 ft 417 kts 154°
2026-04-16 14:33 50.68808 9.48955 18029 ft 427 kts 154°
2026-04-16 14:33 50.66172 9.51229 16756 ft 437 kts 154°
2026-04-16 14:33 50.63502 9.53528 16004 ft 434 kts 154°
2026-04-16 14:34 50.60899 9.55750 15879 ft 416 kts 156°
2026-04-16 14:34 50.58239 9.57163 15742 ft 392 kts 173°
2026-04-16 14:34 50.55633 9.57535 15610 ft 362 kts 180°
2026-04-16 14:34 50.53200 9.57743 15483 ft 338 kts 181°
2026-04-16 14:35 50.50931 9.57756 15256 ft 316 kts 193°
2026-04-16 14:35 50.49521 9.57163 14951 ft 305 kts 207°
2026-04-16 14:35 50.47782 9.55408 14423 ft 294 kts 228°
2026-04-16 14:35 50.46587 9.52879 13812 ft 287 kts 247°
2026-04-16 14:36 50.45954 9.49964 13400 ft 286 kts 255°
2026-04-16 14:36 50.45048 9.47203 13085 ft 289 kts 234°
2026-04-16 14:36 50.43693 9.44854 12719 ft 290 kts 229°
2026-04-16 14:36 50.42313 9.42569 12355 ft 288 kts 229°
2026-04-16 14:37 50.40929 9.40300 11993 ft 287 kts 229°
2026-04-16 14:37 50.39550 9.38052 11635 ft 285 kts 228°
2026-04-16 14:37 50.38179 9.35819 11286 ft 283 kts 228°
2026-04-16 14:37 50.36818 9.33600 10938 ft 282 kts 228°
2026-04-16 14:38 50.35466 9.31391 10593 ft 280 kts 228°
2026-04-16 14:38 50.34121 9.29194 10253 ft 279 kts 228°
2026-04-16 14:38 50.32785 9.27015 9893 ft 277 kts 228°
2026-04-16 14:38 50.31455 9.24844 9520 ft 275 kts 228°
2026-04-16 14:39 50.30138 9.22688 9151 ft 274 kts 228°
2026-04-16 14:39 50.28824 9.20541 8784 ft 272 kts 228°
2026-04-16 14:39 50.27518 9.18413 8414 ft 270 kts 227°
2026-04-16 14:39 50.26217 9.16297 8057 ft 270 kts 227°
2026-04-16 14:40 50.24922 9.14195 7705 ft 269 kts 227°
2026-04-16 14:40 50.23625 9.12090 7354 ft 268 kts 227°
2026-04-16 14:40 50.22337 9.09998 7008 ft 267 kts 227°
2026-04-16 14:40 50.21057 9.07921 6666 ft 264 kts 227°
2026-04-16 14:41 50.19795 9.05878 6306 ft 260 kts 227°
2026-04-16 14:41 50.18555 9.03866 5993 ft 254 kts 227°
2026-04-16 14:41 50.17343 9.01903 5686 ft 249 kts 227°
2026-04-16 14:41 50.16156 8.99985 5380 ft 244 kts 227°
2026-04-16 14:42 50.14989 8.98100 5083 ft 239 kts 227°
2026-04-16 14:42 50.13840 8.96244 4798 ft 235 kts 227°
2026-04-16 14:42 50.12722 8.94425 4538 ft 229 kts 229°
2026-04-16 14:42 50.11949 8.92312 4281 ft 223 kts 249°
2026-04-16 14:43 50.11422 8.90058 4070 ft 218 kts 250°
2026-04-16 14:43 50.10918 8.87892 4003 ft 206 kts 250°
2026-04-16 14:43 50.10444 8.85869 3972 ft 192 kts 250°
2026-04-16 14:43 50.09991 8.83945 3743 ft 187 kts 250°
2026-04-16 14:44 50.09547 8.82061 3503 ft 184 kts 249°
2026-04-16 14:44 50.09107 8.80191 3266 ft 184 kts 250°
2026-04-16 14:44 50.08667 8.78326 3017 ft 183 kts 250°
2026-04-16 14:44 50.08229 8.76475 2765 ft 181 kts 250°
2026-04-16 14:45 50.07799 8.74651 2527 ft 175 kts 250°
2026-04-16 14:45 50.07402 8.72975 2317 ft 153 kts 249°
2026-04-16 14:45 50.07058 8.71520 2110 ft 134 kts 249°
2026-04-16 14:45 50.06746 8.70201 1932 ft 128 kts 249°
2026-04-16 14:46 50.06441 8.68915 1760 ft 126 kts 249°
2026-04-16 14:46 50.06137 8.67635 1609 ft 126 kts 250°
2026-04-16 14:46 50.05834 8.66359 1438 ft 126 kts 250°
2026-04-16 14:46 50.05535 8.65097 1280 ft 123 kts 249°
2026-04-16 14:47 50.05237 8.63840 1107 ft 124 kts 251°
2026-04-16 14:47 50.04937 8.62580 946 ft 124 kts 253°
2026-04-16 14:47 50.04629 8.61282 770 ft 130 kts 253°
2026-04-16 14:47 50.04314 8.59947 600 ft 133 kts 252°
2026-04-16 14:48 50.03988 8.58588 425 ft 135 kts 253°
2026-04-16 14:48 50.03684 8.57285 359 ft 115 kts 252°
2026-04-16 14:48 50.03462 8.56367 356 ft 66 kts 249°
2026-04-16 14:48 50.03342 8.55864 349 ft 40 kts 250°
2026-04-16 14:49 50.03313 8.55509 343 ft 26 kts 274°
2026-04-16 14:49 50.03345 8.55227 342 ft 27 kts 283°
2026-04-16 14:49 50.03434 8.55249 349 ft 19 kts 64°
2026-04-16 14:49 50.03482 8.55440 348 ft 19 kts 69°
2026-04-16 14:50 50.03531 8.55638 346 ft 20 kts 69°
2026-04-16 14:50 50.03579 8.55840 356 ft 20 kts 69°
2026-04-16 14:50 50.03628 8.56039 354 ft 20 kts 69°
2026-04-16 14:50 50.03675 8.56238 354 ft 20 kts 70°
2026-04-16 14:51 50.03725 8.56447 357 ft 21 kts 70°
2026-04-16 14:51 50.03778 8.56667 353 ft 22 kts 69°
2026-04-16 14:51 50.03831 8.56889 359 ft 22 kts 69°
2026-04-16 14:51 50.03887 8.57118 363 ft 22 kts 69°
2026-04-16 14:53 50.04249 8.58624 371 ft 23 kts 69°
2026-04-16 14:53 50.04305 8.58855 374 ft 22 kts 69°
2026-04-16 14:54 50.04358 8.59074 377 ft 21 kts 69°
2026-04-16 14:54 50.04406 8.59303 376 ft 23 kts 72°
2026-04-16 14:54 50.04498 8.59477 375 ft 22 kts 355°
2026-04-16 14:54 50.04659 8.59457 372 ft 24 kts 352°
2026-04-16 14:55 50.04819 8.59373 371 ft 25 kts 339°
2026-04-16 14:55 50.04995 8.59340 367 ft 27 kts 340°
2026-04-16 14:55 50.05064 8.59137 361 ft 26 kts 249°
2026-04-16 14:55 50.04998 8.58869 362 ft 27 kts 249°
2026-04-16 14:56 50.04936 8.58613 362 ft 25 kts 250°
2026-04-16 14:56 50.04878 8.58376 361 ft 11 kts 231°
2026-04-16 14:56 50.04823 8.58409 362 ft 7 kts 158°
2026-04-16 14:56 50.04810 8.58417 363 ft 1 kts 159°
2026-04-16 14:57 50.04809 8.58418 365 ft 1 kts 159°
2026-04-16 14:57 50.04806 8.58419 366 ft 1 kts 159°
2026-04-16 14:57 50.04802 8.58421 366 ft 0 kts 159°
2026-04-16 14:57 50.04801 8.58422 366 ft 0 kts 159°